Location: Vysna Sitnica
(49.0952°N, 21.7906°E)
Time: 07:31:30
(UTC+02:00)

ISS - Visible Passes

Search period start: 25 May 2018 00:00
Search period end: 04 June 2018 00:00
Orbit: 402 x 407 km, 51.6° (Epoch: 25 May)

Date Brightness Start Highest point End Pass type
(mag) Time Alt. Az. Time Alt. Az. Time Alt. Az.
25 May -3.6 00:31:40 10° WNW 00:34:56 71° NNE 00:35:43 47° E visible
25 May -3.3 22:02:42 10° W 22:05:57 61° N 22:09:12 10° ENE visible
25 May -3.3 23:39:27 10° WNW 23:42:41 58° N 23:44:38 21° E visible
26 May -2.0 01:16:00 10° WNW 01:17:14 21° W 01:17:14 21° W visible
26 May -3.6 21:10:26 10° WSW 21:13:42 77° NNW 21:16:59 10° ENE visible
26 May -3.0 22:47:11 10° WNW 22:50:24 52° N 22:53:37 10° E visible
27 May -3.5 00:23:45 10° WNW 00:26:25 55° W 00:26:25 55° W visible
27 May -3.0 21:54:53 10° W 21:58:06 52° N 22:01:19 10° ENE visible
27 May -3.8 23:31:30 10° WNW 23:34:47 78° NNE 23:35:41 44° E visible
28 May -1.1 01:08:14 10° W 01:08:19 10° W 01:08:19 10° W visible
28 May -3.1 21:02:32 10° W 21:05:47 58° N 21:09:01 10° ENE visible
28 May -3.4 22:39:16 10° WNW 22:42:31 61° N 22:45:01 16° E visible
29 May -2.4 00:15:50 10° WNW 00:17:38 27° W 00:17:38 27° W visible
29 May -3.1 21:46:59 10° WNW 21:50:12 53° N 21:53:25 10° E visible
29 May -4.0 23:23:31 10° WNW 23:26:46 66° SSW 23:27:01 63° S visible
30 May -3.9 22:31:15 10° WNW 22:34:31 86° NNE 22:36:25 23° ESE visible
31 May -1.6 00:08:04 10° W 00:09:02 16° W 00:09:02 16° W visible
31 May -3.5 21:38:57 10° WNW 21:42:13 66° NNE 21:45:29 10° E visible
31 May -3.1 23:15:34 10° W 23:18:27 36° SW 23:18:27 36° SW visible
01 Jun -3.7 22:23:10 10° WNW 22:26:24 57° SSW 22:27:54 28° SE visible
02 Jun -3.9 21:30:51 10° WNW 21:34:08 84° SSW 21:37:21 10° ESE visible
02 Jun -2.0 23:07:50 10° W 23:09:58 19° SW 23:09:58 19° SW visible
03 Jun -2.7 22:15:11 10° W 22:18:07 31° SW 22:19:28 22° S visible
